Home > Time Zones > World Clock > Weather > Russia > Perm > Past weeks

Flag for Russia Weather past 2 weeks in Perm, Russia

Now
52 °F

Partly sunny.


Feels Like: 47 °F
Forecast: 42 / 49 °F
Wind: 15 mph from West

Location: Perm'/Bolshoe Savino

Current Time: Sep 1, 2015 at 3:34:48 PM

Latest Report: Sep 1, 2015 at 3:00 PM


Visibility: N/A

Pressure: 29.62 "Hg

Humidity: 54%

Dew point: 36 °F

Location of PermLocation

Historic Weather in Perm — Graph

°F

Perm temperature yesterday

Maximum temperature yesterday: 46 °F (at 1:00 PM)
Minimum temperature yesterday: 41 °F (at 12:00 AM)
Average temperature yesterday: 43 °F

Past Weeks' High & Low Weather Summary

 TemperatureHumidityPressure
High72 °F (Aug 22, 1:30 PM)100% (Aug 17, 6:00 PM)30.09 "Hg (Aug 17, 6:00 PM)
Low34 °F (Aug 24, 4:30 AM)44% (Aug 29, 6:00 PM)29.45 "Hg (Aug 18, 7:30 AM)
Average51 °F87%29.82 "Hg
* Reported Aug 17 2:00 PM — Sep 1 2:30 PM, Perm, Weather by CustomWeather, © 2015

Note: Actual official high and low records may vary slightly from our data, if they occured in-between our weather recording intervals... More about our weather records

Advertising

Perm weather history for previous 24 hours

 ConditionsComfort  
Time TempWeatherWind HumidityBarometerVisibility
2:30 PM
Tue, Sep 1
52 °FPartly sunny.15 mph54%29.62 "HgN/A
2:00 PM52 °FPartly sunny.15 mph54%29.62 "HgN/A
1:30 PM50 °FPartly sunny.13 mph62%29.59 "HgN/A
1:00 PM50 °FPartly sunny.15 mph62%29.62 "HgN/A
12:30 PM48 °FPartly sunny.15 mph66%29.62 "HgN/A
12:00 PM46 °FPartly sunny.10 mph76%29.62 "HgN/A
11:30 AM46 °FPartly sunny.10 mph71%29.62 "HgN/A
11:00 AM46 °FPartly sunny.13 mph71%29.62 "HgN/A
10:30 AM46 °FPartly sunny.10 mph76%29.62 "HgN/A
10:00 AM45 °FScattered clouds.13 mph87%29.62 "HgN/A
9:30 AM45 °FScattered clouds.10 mph87%29.62 "HgN/A
8:30 AM41 °FPartly sunny.8 mph93%29.62 "HgN/A
8:00 AM41 °FClear.10 mph93%29.62 "Hg10 mi
7:30 AM39 °FClear.10 mph100%29.59 "Hg10 mi
7:00 AM39 °FClear.8 mph93%29.59 "Hg10 mi
6:30 AM37 °FClear.6 mph100%29.59 "Hg10 mi
6:00 AM37 °FClear.8 mph100%29.59 "Hg10 mi
5:30 AM39 °FClear.10 mph93%29.59 "Hg10 mi
5:00 AM39 °FClear.10 mph93%29.59 "Hg10 mi
4:30 AM39 °FClear.8 mph93%29.59 "Hg10 mi
4:00 AM39 °FClear.8 mph93%29.59 "Hg10 mi
3:30 AM39 °FClear.8 mph100%29.59 "Hg10 mi
2:30 AM39 °FMostly cloudy.8 mph100%29.59 "HgN/A
2:00 AM41 °FMostly cloudy.6 mph93%29.62 "HgN/A
1:30 AM41 °FMostly cloudy.6 mph93%29.62 "HgN/A
1:00 AM41 °FMostly cloudy.6 mph100%29.62 "HgN/A
12:30 AM41 °FLight rain. Mostly cloudy.3 mph100%29.62 "HgN/A
12:00 AM41 °FLight rain. Mostly cloudy.6 mph100%29.62 "HgN/A
11:30 PM
Mon, Aug 31
41 °FMostly cloudy.3 mph100%29.65 "HgN/A
11:00 PM41 °FMostly cloudy.1 mph100%29.65 "HgN/A
10:30 PM41 °FMostly cloudy.3 mph93%29.65 "HgN/A
10:00 PM41 °FMostly cloudy.3 mph93%29.65 "HgN/A
9:30 PM41 °FMostly cloudy.6 mph93%29.65 "HgN/A
9:00 PM41 °FLight rain. Mostly cloudy.6 mph93%29.65 "HgN/A
8:30 PM41 °FLight rain. Mostly cloudy.8 mph93%29.65 "HgN/A
8:00 PM41 °FLight rain. Mostly cloudy.10 mph93%29.65 "HgN/A
7:30 PM41 °FLight rain. Mostly cloudy.13 mph93%29.65 "HgN/A
7:00 PM41 °FLight rain. Mostly cloudy.13 mph93%29.62 "HgN/A
6:30 PM43 °FLight rain. Mostly cloudy.13 mph93%29.62 "Hg6 mi
6:00 PM43 °FLight rain. Mostly cloudy.15 mph93%29.59 "HgN/A
5:30 PM45 °FLight rain. Mostly cloudy.13 mph87%29.59 "HgN/A
5:00 PM45 °FLight rain. Mostly cloudy.10 mph93%29.59 "HgN/A
4:30 PM45 °FLight rain. Mostly cloudy.13 mph93%29.56 "HgN/A
4:00 PM45 °FLight rain. Mostly cloudy.13 mph93%29.56 "HgN/A
3:30 PM46 °FLight rain. Mostly cloudy.10 mph87%29.53 "HgN/A
3:00 PM46 °FLight rain. Mostly cloudy.13 mph93%29.53 "HgN/A
Weather by CustomWeather, © 2015

See weather overviewHow to use our weather pages